Regional Weather Roundup
Issued by NWS

Home | Current Version | Previous Version | Graphics & Text | Print | Product List | Glossary Off
Versions: 1 2 3 4 5 6 7 8 9 10 11 12 13 14 15 16 17 18 19 20 21 22 23 24 25 26 27 28 29 30 31 32 33 34 35 36 37 38 39 40 41 42 43 44 45 46 47 48 49 50

000
ASUS43 KTOP 220659
RWRKS

WEATHER ROUNDUP FOR KANSAS
NATIONAL WEATHER SERVICE GOODLAND KS
200 AM CDT THU JUN 22 2017

NOTE:  "FAIR" INDICATES FEW OR NO CLOUDS BELOW 12,000 FEET WITH NO
SIGNIFICANT WEATHER AND/OR OBSTRUCTIONS TO VISIBILITY.

KSZ001>006-013>018-027>032-041>047-220800-
NORTHWEST KANSAS

CITY           SKY/WX    TMP DP  RH WIND       PRES   REMARKS
GOODLAND       CLEAR     74  54  49 SW16G25   29.82F
HAYS           CLOUDY    73  60  63 NE5       29.81R
HILL CITY      PTCLDY    74  64  71 S3        29.82R
RUSSELL        CLOUDY    77  56  48 E5        29.80R
$$

KSZ061>065-074>080-084>089-220800-
SOUTHWEST KANSAS

CITY           SKY/WX    TMP DP  RH WIND       PRES   REMARKS
DODGE CITY     CLOUDY    74  57  55 SW13G24   29.79R
ELKHART          N/A     66  51  58 S14         N/A
GARDEN CITY    CLOUDY    69  59  70 SW12      29.81F
GREAT BEND     MOCLDY    77  57  50 S12       29.78R
LIBERAL        CLOUDY    71  60  68 SW10      29.81F
$$

KSZ066>073-081>083-090>101-220800-
SOUTHEAST KANSAS

CITY           SKY/WX    TMP DP  RH WIND       PRES   REMARKS
CHANUTE        CLEAR     69  64  84 SE6       29.85F
COFFEYVILLE    CLEAR     70  65  84 S3        29.84F
HUTCHINSON     CLOUDY    76  59  55 S21       29.79S
MEDICINE LODGE   N/A     76  54  46 SE9       29.78R
NEWTON         MOCLDY    73  58  59 S18G28    29.82F
PARSONS        PTCLDY    69  64  84 CALM      29.86S
WICHITA INTL   CLOUDY    73  61  65 S15       29.82S
WICHITA JABRA  CLOUDY    72  60  66 S15       29.83S
WINFIELD       MOCLDY    71  62  73 SE7       29.86S
$$

KSZ007>012-019>026-033>040-048>060-102>105-220800-
NORTHEAST KANSAS

CITY           SKY/WX    TMP DP  RH WIND       PRES   REMARKS
CONCORDIA      CLOUDY    76  62  62 S17       29.78F THUNDER
EMPORIA        PTCLDY    70  61  73 S13       29.84S
LAWRENCE       PTCLDY    74  67  78 SE9       29.83S
MANHATTAN      CLOUDY    79  60  52 S10G20    29.77F
OLATHE IND     PTCLDY    71  64  78 S8        29.85F
OLATHE EXE     CLOUDY    72  63  73 S7        29.85S
SALINA         CLOUDY    80  60  50 S17       29.76F
TOPEKA BILLARD CLOUDY    76  66  71 S7        29.81F
TOPEKA FORBES  PTCLDY    75  65  70 S8        29.82S
$$




USA.gov is the U.S. government's official web portal to all federal, state and local government web resources and services.